DMSP 5D-3 F16 (USA 172) 1 28054U 03048A 21056.74650463 -.00000030 00000-0 81542-5 0 9992 2 28054 98.9430 41.3126 0006674 220.5268 120.0194 14.13646892895675 DMSP 5D-3 F16 DEB 1 28055U 03048B 21056.48527243 .00000517 00000-0 25039-3 0 9999 2 28055 98.6927 45.1924 0003691 58.1241 103.2021 14.22674234898186 DMSP 5D-3 F16 DEB 1 28056U 03048C 21056.18294892 .00000483 00000-0 23836-3 0 9993 2 28056 98.6931 44.0367 0004182 64.2665 295.8944 14.21998270898208 DMSP 5D-3 F16 DEB 1 28080U 03048D 21056.44959182 .00000627 00000-0 28646-3 0 9993 2 28080 98.5051 62.1503 0006220 51.3832 308.7904 14.24902913896893 DMSP 5D-3 F16 DEB 1 28081U 03048E 21056.46832254 .00001137 00000-0 44632-3 0 9996 2 28081 98.4927 56.9484 0015591 279.3112 80.6308 14.31208667897111